Flag for Venezuela Weather past 2 weeks in Barquisimeto, Venezuela

Now
79 °F

Broken clouds.


Feels Like: 81 °F
Forecast: N/A
Wind: 18 mph from East

Location: Barquisimeto Airport

Current Time: Jul 25, 2014 at 4:56:40 PM

Latest Report: Jul 25, 2014 at 4:30 PM


Visibility: N/A

Pressure: 29.95 "Hg

Humidity: 74%

Dew point: 70 °F

Location of BarquisimetoLocation

Historic Weather in Barquisimeto — Graph

°F

Barquisimeto temperature yesterday

Maximum temperature yesterday: 86 °F (at 3:30 PM)
Minimum temperature yesterday: 70 °F (at 4:30 AM)
Average temperature yesterday: 77 °F

Past Weeks' High & Low Weather Summary

 TemperatureHumidityPressure
High91 °F (Jul 23, 8:30 AM)100% (Jul 11, 9:30 PM)30.12 "Hg (Jul 11, 9:30 PM)
Low64 °F (Jul 14, 1:30 AM)37% (Jul 23, 11:30 AM)29.83 "Hg (Jul 22, 11:30 AM)
Average76 °F80%30.05 "Hg
* Reported Jul 10 3:30 PM — Jul 25 3:30 PM, Barquisimeto, Weather by CustomWeather, © 2014

Note: Actual official high and low records may vary slightly from our data, if they occured in-between our weather recording intervals... More about our weather records

Advertising

Barquisimeto weather history for previous 24 hours

 ConditionsComfort  
Time TempWeatherWind HumidityBarometerVisibility
3:30 PM
Jul 25
68 °FScattered clouds.16 mph94%29.98 "HgN/A
2:30 PM86 °FScattered clouds.14 mph49%30.01 "HgN/A
1:30 PM86 °FPartly sunny.13 mph52%30.01 "HgN/A
12:30 PM86 °FScattered clouds.14 mph52%30.04 "HgN/A
11:30 AM82 °FScattered clouds.12 mph62%30.04 "HgN/A
10:30 AM81 °FScattered clouds.14 mph66%30.07 "HgN/A
9:30 AM77 °FScattered clouds.14 mph74%30.07 "HgN/A
8:30 AM72 °FFog.7 mph94%30.07 "Hg5 mi
7:30 AM73 °FScattered clouds.6 mph94%30.07 "Hg4 mi
6:30 AM70 °FScattered clouds.2 mph94%30.04 "HgN/A
5:30 AM70 °FBroken clouds.6 mph94%30.01 "HgN/A
4:30 AM70 °FPassing clouds.5 mph94%30.01 "HgN/A
1:30 AM82 °FPassing clouds.5 mph70%29.89 "HgN/A
10:30 PM
Jul 24
73 °FPassing clouds.8 mph94%30.04 "HgN/A
9:30 PM73 °FPassing clouds.3 mph83%30.04 "HgN/A
8:30 PM75 °FPassing clouds.5 mph78%30.01 "HgN/A
7:30 PM77 °FPassing clouds.6 mph74%30.01 "HgN/A
6:30 PM79 °FPassing clouds.12 mph70%29.98 "HgN/A
5:30 PM82 °FPassing clouds.12 mph58%29.98 "HgN/A
4:30 PM84 °FPassing clouds.14 mph55%29.98 "HgN/A
Weather by CustomWeather, © 2014

See weather overviewHow to use our weather pages